Regional Weather Roundup
Issued by NWS

Home | Current Version | Previous Version | Graphics & Text | Print | Product List | Glossary On
Versions: 1 2 3 4 5 6 7 8 9 10 11 12 13 14 15 16 17 18 19 20 21 22 23 24 25 26 27 28 29 30 31 32 33 34 35 36 37 38 39 40 41 42 43 44 45 46 47 48 49 50
939
ASUS43 KBIS 192010
RWRND

NORTH DAKOTA REGIONAL WEATHER ROUNDUP
NATIONAL WEATHER SERVICE BISMARCK ND
200 PM CST SUN FEB 19 2017

NOTE: "FAIR" INDICATES FEW OR NO CLOUDS BELOW 12,000 FEET WITH NO
SIGNIFICANT WEATHER AND/OR OBSTRUCTIONS TO VISIBILITY.


NDZ001>003-009>011-017-192100-
NORTHWEST NORTH DAKOTA

CITY           SKY/WX    TMP DP  RH WIND       PRES   REMARKS
WILLISTON      CLOUDY    37  32  82 E7        29.48F
MINOT          FAIR      40  35  83 E9        29.51F
MINOT AFB      CLOUDY    36  32  87 E9        29.51F
$$

NDZ018>021-031>035-040>046-192100-
SOUTHWEST NORTH DAKOTA

CITY           SKY/WX    TMP DP  RH WIND       PRES   REMARKS
BISMARCK       FAIR      43  35  73 SE10      29.51F
DICKINSON      FAIR      50  37  61 SE7       29.43S
GARRISON         N/A     41  35  79 E12       29.49F
HETTINGER ARPT CLOUDY    59  35  40 S9        29.45F
$$

NDZ004>008-012>016-024-026-027-054-192100-
NORTHEAST NORTH DAKOTA

CITY           SKY/WX    TMP DP  RH WIND       PRES   REMARKS
GRAND FORKS    CLOUDY    44  33  65 SE18      29.67F
GRND FRKS AFB  PTSUNNY   43  37  78 SE12      29.66F
DEVILS LAKE    FAIR      39  35  86 SE17      29.59F
$$

NDZ022-023-025-028>030-036>039-047>053-192100-
SOUTHEAST NORTH DAKOTA

CITY           SKY/WX    TMP DP  RH WIND       PRES   REMARKS
FARGO          SUNNY     54  42  64 SE26G39   29.65F
JAMESTOWN      FAIR      44  40  85 SE15      29.55F
$$





USA.gov is the U.S. government's official web portal to all federal, state and local government web resources and services.